Time,TemperatureF,DewpointF,PressureIn,WindDirection,WindDirectionDegrees,WindSpeedMPH,WindSpeedGustMPH,Humidity,HourlyPrecipIn,Conditions,Clouds,dailyrainin,SolarRadiationWatts/m^2,SoftwareType,DateUTC
2013-07-22 00:01:00,60.8,54.7,29.92,East,92,1.0,5.0,80,0.00,,,0.00,0.0,meteohub,2013-07-22 04:01:00,
2013-07-22 00:06:00,60.6,54.5,29.92,SE,134,1.0,5.0,80,0.00,,,0.00,0.0,meteohub,2013-07-22 04:06:00,
2013-07-22 00:11:00,60.6,54.5,29.92,South,173,1.0,5.0,80,0.00,,,0.00,0.0,meteohub,2013-07-22 04:11:00,
2013-07-22 00:17:00,60.4,54.3,29.92,SE,142,0.0,4.0,80,0.00,,,0.00,0.0,meteohub,2013-07-22 04:17:00,
2013-07-22 00:22:00,60.4,54.5,29.91,ESE,105,2.0,4.0,81,0.00,,,0.00,0.0,meteohub,2013-07-22 04:22:00,
2013-07-22 00:27:00,60.3,54.3,29.91,South,184,0.0,4.0,81,0.00,,,0.00,0.0,meteohub,2013-07-22 04:27:00,
2013-07-22 00:32:00,60.3,54.7,29.91,ESE,108,1.0,4.0,82,0.00,,,0.00,0.0,meteohub,2013-07-22 04:32:00,
2013-07-22 00:37:00,60.3,54.7,29.91,ESE,113,1.0,4.0,82,0.00,,,0.00,0.0,meteohub,2013-07-22 04:37:00,
2013-07-22 00:42:00,60.3,55.0,29.91,SSW,194,1.0,4.0,83,0.00,,,0.00,0.0,meteohub,2013-07-22 04:42:00,
2013-07-22 00:47:00,60.3,55.0,29.91,SE,130,2.0,4.0,83,0.00,,,0.00,0.0,meteohub,2013-07-22 04:47:00,
2013-07-22 00:52:00,60.3,55.0,29.91,SSE,167,1.0,4.0,83,0.00,,,0.00,0.0,meteohub,2013-07-22 04:52:00,
2013-07-22 00:57:00,60.4,55.2,29.91,SE,146,1.0,4.0,83,0.00,,,0.00,0.0,meteohub,2013-07-22 04:57:00,
2013-07-22 01:02:00,60.4,55.2,29.91,SE,142,2.0,4.0,83,0.00,,,0.00,0.0,meteohub,2013-07-22 05:02:00,
2013-07-22 01:07:00,60.4,55.2,29.91,SSE,156,2.0,5.0,83,0.00,,,0.00,0.0,meteohub,2013-07-22 05:07:00,
2013-07-22 01:12:00,60.6,55.0,29.91,SSE,157,1.0,5.0,82,0.00,,,0.00,0.0,meteohub,2013-07-22 05:12:00,
2013-07-22 01:17:00,60.8,55.2,29.91,South,187,2.0,6.0,82,0.00,,,0.00,0.0,meteohub,2013-07-22 05:17:00,
2013-07-22 01:22:00,61.0,55.4,29.91,SE,136,1.0,6.0,82,0.00,,,0.00,0.0,meteohub,2013-07-22 05:22:00,
2013-07-22 01:27:00,61.2,55.6,29.90,South,169,2.0,6.0,82,0.00,,,0.00,0.0,meteohub,2013-07-22 05:27:00,
2013-07-22 01:32:00,61.2,55.6,29.90,South,189,3.0,6.0,82,0.00,,,0.00,0.0,meteohub,2013-07-22 05:32:00,
2013-07-22 01:37:00,61.3,55.8,29.90,South,174,2.0,6.0,82,0.00,,,0.00,0.0,meteohub,2013-07-22 05:37:00,
2013-07-22 01:42:00,61.5,55.9,29.90,SW,232,1.0,7.0,82,0.00,,,0.00,0.0,meteohub,2013-07-22 05:42:00,
2013-07-22 01:47:00,61.5,55.9,29.90,South,180,2.0,7.0,82,0.00,,,0.00,0.0,meteohub,2013-07-22 05:47:00,
2013-07-22 01:52:00,61.5,55.9,29.89,South,175,4.0,7.0,82,0.00,,,0.00,0.0,meteohub,2013-07-22 05:52:00,
2013-07-22 01:57:00,61.5,55.9,29.89,SE,146,2.0,7.0,82,0.00,,,0.00,0.0,meteohub,2013-07-22 05:57:00,
2013-07-22 02:02:00,61.5,55.9,29.89,SE,136,4.0,7.0,82,0.00,,,0.00,0.0,meteohub,2013-07-22 06:02:00,
2013-07-22 02:07:00,61.3,56.1,29.89,SE,144,2.0,7.0,83,0.00,,,0.00,0.0,meteohub,2013-07-22 06:07:00,
2013-07-22 02:12:00,61.3,56.1,29.89,South,180,2.0,6.0,83,0.00,,,0.00,0.0,meteohub,2013-07-22 06:12:00,
2013-07-22 02:18:00,61.3,56.1,29.89,South,190,3.0,6.0,83,0.00,,,0.00,0.0,meteohub,2013-07-22 06:18:00,
2013-07-22 02:23:00,61.3,56.5,29.89,SSE,161,2.0,6.0,84,0.00,,,0.00,0.0,meteohub,2013-07-22 06:23:00,
2013-07-22 02:28:00,61.3,56.5,29.89,SSE,162,2.0,5.0,84,0.00,,,0.00,0.0,meteohub,2013-07-22 06:28:00,
2013-07-22 02:33:00,61.3,56.5,29.89,SSW,193,1.0,5.0,84,0.00,,,0.00,0.0,meteohub,2013-07-22 06:33:00,
2013-07-22 02:38:00,61.3,56.5,29.89,South,184,1.0,5.0,84,0.00,,,0.00,0.0,meteohub,2013-07-22 06:38:00,
2013-07-22 02:43:00,61.3,56.5,29.89,SSE,159,2.0,5.0,84,0.00,,,0.00,0.0,meteohub,2013-07-22 06:43:00,
2013-07-22 02:48:00,61.3,56.5,29.89,South,178,1.0,5.0,84,0.00,,,0.00,0.0,meteohub,2013-07-22 06:48:00,
2013-07-22 02:53:00,61.2,56.7,29.89,South,188,1.0,5.0,85,0.00,,,0.00,0.0,meteohub,2013-07-22 06:53:00,
2013-07-22 02:58:00,61.2,56.7,29.89,SSE,151,3.0,5.0,85,0.00,,,0.00,0.0,meteohub,2013-07-22 06:58:00,
2013-07-22 03:03:00,61.2,56.7,29.89,SW,218,1.0,4.0,85,0.00,,,0.00,0.0,meteohub,2013-07-22 07:03:00,
2013-07-22 03:08:00,61.2,56.7,29.90,SSE,165,3.0,5.0,85,0.00,,,0.00,0.0,meteohub,2013-07-22 07:08:00,
2013-07-22 03:13:00,61.2,56.7,29.89,SSE,160,2.0,5.0,85,0.00,,,0.00,0.0,meteohub,2013-07-22 07:13:00,
2013-07-22 03:18:00,61.2,57.0,29.89,South,181,0.0,5.0,86,0.00,,,0.00,0.0,meteohub,2013-07-22 07:18:00,
2013-07-22 03:24:00,61.2,57.0,29.88,South,174,1.0,5.0,86,0.00,,,0.00,0.0,meteohub,2013-07-22 07:24:00,
2013-07-22 03:29:00,61.2,57.0,29.88,SSE,165,2.0,3.0,86,0.00,,,0.00,0.0,meteohub,2013-07-22 07:29:00,
2013-07-22 03:34:00,61.2,57.0,29.88,SSE,164,3.0,6.0,86,0.00,,,0.00,0.0,meteohub,2013-07-22 07:34:00,
2013-07-22 03:39:00,61.2,57.0,29.88,South,184,2.0,6.0,86,0.00,,,0.00,0.0,meteohub,2013-07-22 07:39:00,
2013-07-22 03:44:00,61.2,57.0,29.88,SSW,193,1.0,6.0,86,0.00,,,0.00,0.0,meteohub,2013-07-22 07:44:00,
2013-07-22 03:49:00,61.2,57.0,29.88,South,171,1.0,4.0,86,0.00,,,0.00,0.0,meteohub,2013-07-22 07:49:00,
2013-07-22 03:54:00,61.2,57.2,29.88,SSE,154,1.0,4.0,87,0.00,,,0.00,0.0,meteohub,2013-07-22 07:54:00,
2013-07-22 03:59:00,61.3,57.4,29.88,South,191,1.0,4.0,87,0.00,,,0.00,0.0,meteohub,2013-07-22 07:59:00,
2013-07-22 04:04:00,61.3,57.4,29.88,South,186,2.0,5.0,87,0.00,,,0.00,0.0,meteohub,2013-07-22 08:04:00,
2013-07-22 04:09:00,61.3,57.4,29.87,South,169,2.0,5.0,87,0.00,,,0.00,0.0,meteohub,2013-07-22 08:09:00,
2013-07-22 04:14:00,61.3,57.4,29.87,SSE,157,3.0,4.0,87,0.00,,,0.00,0.0,meteohub,2013-07-22 08:14:00,
2013-07-22 04:19:00,61.3,57.4,29.86,SSW,192,1.0,4.0,87,0.00,,,0.00,0.0,meteohub,2013-07-22 08:19:00,
2013-07-22 04:24:00,61.3,57.4,29.86,South,185,1.0,4.0,87,0.00,,,0.00,0.0,meteohub,2013-07-22 08:24:00,
2013-07-22 04:29:00,61.3,57.4,29.86,South,186,1.0,3.0,87,0.00,,,0.00,0.0,meteohub,2013-07-22 08:29:00,
2013-07-22 04:34:00,61.3,57.4,29.86,South,182,1.0,4.0,87,0.00,,,0.00,0.0,meteohub,2013-07-22 08:34:00,
2013-07-22 04:39:00,61.3,57.4,29.86,SSE,155,1.0,4.0,87,0.00,,,0.00,0.0,meteohub,2013-07-22 08:39:00,
2013-07-22 04:44:00,61.2,57.6,29.86,South,182,0.0,4.0,88,0.00,,,0.00,0.0,meteohub,2013-07-22 08:44:00,
2013-07-22 04:49:00,61.2,57.6,29.86,SSW,193,1.0,3.0,88,0.00,,,0.00,0.0,meteohub,2013-07-22 08:49:00,
2013-07-22 04:54:00,61.2,57.6,29.85,SSW,198,1.0,3.0,88,0.00,,,0.00,0.0,meteohub,2013-07-22 08:54:00,
2013-07-22 04:59:00,61.0,57.4,29.86,South,171,3.0,3.0,88,0.00,,,0.00,0.0,meteohub,2013-07-22 08:59:00,
2013-07-22 05:04:00,61.0,57.4,29.85,South,189,1.0,4.0,88,0.00,,,0.00,0.0,meteohub,2013-07-22 09:04:00,
2013-07-22 05:09:00,61.0,57.7,29.86,South,186,1.0,4.0,89,0.00,,,0.00,0.0,meteohub,2013-07-22 09:09:00,
2013-07-22 05:14:00,61.0,57.7,29.86,SSW,205,2.0,4.0,89,0.00,,,0.00,0.0,meteohub,2013-07-22 09:14:00,
2013-07-22 05:19:00,61.2,57.9,29.85,South,180,1.0,5.0,89,0.00,,,0.00,0.0,meteohub,2013-07-22 09:19:00,
2013-07-22 05:25:00,61.2,57.9,29.85,SSW,194,0.0,5.0,89,0.00,,,0.00,0.0,meteohub,2013-07-22 09:25:00,
2013-07-22 05:30:00,61.2,57.9,29.85,South,183,1.0,5.0,89,0.00,,,0.00,0.0,meteohub,2013-07-22 09:30:00,
2013-07-22 05:35:00,61.0,57.7,29.85,South,190,2.0,4.0,89,0.00,,,0.00,0.0,meteohub,2013-07-22 09:35:00,
2013-07-22 05:40:00,61.0,57.7,29.85,South,184,1.0,4.0,89,0.00,,,0.00,0.0,meteohub,2013-07-22 09:40:00,
2013-07-22 05:45:00,60.8,57.6,29.85,SSW,192,1.0,4.0,89,0.00,,,0.00,0.0,meteohub,2013-07-22 09:45:00,
2013-07-22 05:50:00,60.6,57.7,29.85,South,173,1.0,4.0,90,0.00,,,0.00,0.0,meteohub,2013-07-22 09:50:00,
2013-07-22 05:55:00,60.6,57.7,29.85,South,180,1.0,4.0,90,0.00,,,0.00,0.0,meteohub,2013-07-22 09:55:00,
2013-07-22 06:00:00,60.4,57.6,29.85,South,175,1.0,4.0,90,0.00,,,0.00,0.0,meteohub,2013-07-22 10:00:00,
2013-07-22 06:05:00,60.4,57.7,29.85,SSW,200,1.0,4.0,91,0.00,,,0.00,0.0,meteohub,2013-07-22 10:05:00,
2013-07-22 06:10:00,60.3,57.6,29.84,SSW,192,1.0,4.0,91,0.00,,,0.00,5.0,meteohub,2013-07-22 10:10:00,
2013-07-22 06:15:00,60.3,57.6,29.84,SSW,194,2.0,4.0,91,0.00,,,0.00,5.0,meteohub,2013-07-22 10:15:00,
2013-07-22 06:20:00,60.3,57.6,29.84,SSW,208,1.0,3.0,91,0.00,,,0.00,7.0,meteohub,2013-07-22 10:20:00,
2013-07-22 06:25:00,60.3,57.6,29.84,SSW,194,2.0,4.0,91,0.00,,,0.00,11.0,meteohub,2013-07-22 10:25:00,
2013-07-22 06:30:00,60.3,57.9,29.83,SE,141,1.0,4.0,92,0.00,,,0.00,12.0,meteohub,2013-07-22 10:30:00,
2013-07-22 06:35:00,60.3,57.9,29.83,SSW,203,2.0,4.0,92,0.00,,,0.00,14.0,meteohub,2013-07-22 10:35:00,
2013-07-22 06:40:00,60.3,57.9,29.84,SSW,204,1.0,5.0,92,0.00,,,0.00,19.0,meteohub,2013-07-22 10:40:00,
2013-07-22 06:45:00,60.4,58.1,29.84,SW,225,1.0,5.0,92,0.00,,,0.00,32.0,meteohub,2013-07-22 10:45:00,
2013-07-22 06:50:00,60.6,57.9,29.84,SSW,193,1.0,5.0,91,0.00,,,0.00,30.0,meteohub,2013-07-22 10:50:00,
2013-07-22 06:55:00,60.8,58.1,29.83,SSW,204,1.0,5.0,91,0.00,,,0.00,49.0,meteohub,2013-07-22 10:55:00,
2013-07-22 07:00:00,61.2,58.5,29.83,South,175,2.0,4.0,91,0.00,,,0.00,44.0,meteohub,2013-07-22 11:00:00,
2013-07-22 07:05:00,61.2,58.3,29.83,SSW,196,1.0,4.0,90,0.00,,,0.00,51.0,meteohub,2013-07-22 11:05:00,
2013-07-22 07:10:00,61.3,58.5,29.83,South,176,1.0,4.0,90,0.00,,,0.00,67.0,meteohub,2013-07-22 11:10:00,
2013-07-22 07:15:00,61.5,58.6,29.83,SW,223,4.0,4.0,90,0.00,,,0.00,107.0,meteohub,2013-07-22 11:15:00,
2013-07-22 07:20:00,62.1,58.8,29.83,SSE,165,1.0,5.0,89,0.00,,,0.00,123.0,meteohub,2013-07-22 11:20:00,
2013-07-22 07:25:00,62.2,59.0,29.83,SSW,207,2.0,6.0,89,0.00,,,0.00,127.0,meteohub,2013-07-22 11:25:00,
2013-07-22 07:30:00,62.6,59.0,29.83,SW,226,3.0,6.0,88,0.00,,,0.00,156.0,meteohub,2013-07-22 11:30:00,
2013-07-22 07:36:00,63.0,59.4,29.83,SW,223,1.0,6.0,88,0.00,,,0.00,171.0,meteohub,2013-07-22 11:36:00,
2013-07-22 07:41:00,63.1,59.2,29.83,SW,223,2.0,6.0,87,0.00,,,0.00,186.0,meteohub,2013-07-22 11:41:00,
2013-07-22 07:46:00,63.5,59.5,29.83,SSW,197,3.0,5.0,87,0.00,,,0.00,200.0,meteohub,2013-07-22 11:46:00,
2013-07-22 07:51:00,63.9,59.9,29.83,SSW,196,1.0,7.0,87,0.00,,,0.00,214.0,meteohub,2013-07-22 11:51:00,
2013-07-22 07:56:00,64.0,60.1,29.83,SW,226,2.0,7.0,87,0.00,,,0.00,230.0,meteohub,2013-07-22 11:56:00,
2013-07-22 08:01:00,64.4,60.1,29.83,South,176,3.0,7.0,86,0.00,,,0.00,244.0,meteohub,2013-07-22 12:01:00,
2013-07-22 08:06:00,64.8,60.1,29.83,South,178,1.0,6.0,85,0.00,,,0.00,258.0,meteohub,2013-07-22 12:06:00,
2013-07-22 08:11:00,65.1,60.4,29.83,SW,236,2.0,6.0,85,0.00,,,0.00,272.0,meteohub,2013-07-22 12:11:00,
2013-07-22 08:16:00,65.5,60.4,29.83,SW,225,4.0,6.0,84,0.00,,,0.00,288.0,meteohub,2013-07-22 12:16:00,
2013-07-22 08:21:00,65.7,60.6,29.83,SW,231,4.0,7.0,84,0.00,,,0.00,302.0,meteohub,2013-07-22 12:21:00,
2013-07-22 08:26:00,65.8,60.8,29.83,South,180,2.0,7.0,84,0.00,,,0.00,316.0,meteohub,2013-07-22 12:26:00,
2013-07-22 08:31:00,66.4,61.3,29.82,SW,236,3.0,7.0,84,0.00,,,0.00,330.0,meteohub,2013-07-22 12:31:00,
2013-07-22 08:36:00,66.7,61.7,29.82,SW,235,2.0,9.0,84,0.00,,,0.00,345.0,meteohub,2013-07-22 12:36:00,
2013-07-22 08:41:00,67.3,61.9,29.82,SW,214,3.0,9.0,83,0.00,,,0.00,359.0,meteohub,2013-07-22 12:41:00,
2013-07-22 08:46:00,67.6,62.2,29.82,SSE,165,1.0,9.0,83,0.00,,,0.00,376.0,meteohub,2013-07-22 12:46:00,
2013-07-22 08:51:00,68.0,61.9,29.82,SW,215,5.0,8.0,81,0.00,,,0.00,390.0,meteohub,2013-07-22 12:51:00,
2013-07-22 08:56:00,68.4,62.2,29.82,SSE,167,2.0,8.0,81,0.00,,,0.00,403.0,meteohub,2013-07-22 12:56:00,
2013-07-22 09:01:00,68.7,62.2,29.82,SW,219,6.0,8.0,80,0.00,,,0.00,417.0,meteohub,2013-07-22 13:01:00,
2013-07-22 09:06:00,69.1,62.6,29.81,SW,223,4.0,7.0,80,0.00,,,0.00,434.0,meteohub,2013-07-22 13:06:00,
2013-07-22 09:11:00,69.3,62.8,29.82,SSW,205,4.0,7.0,80,0.00,,,0.00,446.0,meteohub,2013-07-22 13:11:00,
2013-07-22 09:16:00,69.4,63.0,29.82,SE,137,1.0,7.0,80,0.00,,,0.00,459.0,meteohub,2013-07-22 13:16:00,
2013-07-22 09:21:00,70.2,63.0,29.82,WSW,240,0.0,7.0,78,0.00,,,0.00,475.0,meteohub,2013-07-22 13:21:00,
2013-07-22 09:26:00,70.2,63.3,29.82,SSE,158,3.0,9.0,79,0.00,,,0.00,489.0,meteohub,2013-07-22 13:26:00,
2013-07-22 09:31:00,70.5,63.3,29.81,WSW,250,1.0,9.0,78,0.00,,,0.00,501.0,meteohub,2013-07-22 13:31:00,
2013-07-22 09:36:00,70.2,63.3,29.81,WSW,239,4.0,9.0,79,0.00,,,0.00,519.0,meteohub,2013-07-22 13:36:00,
2013-07-22 09:41:00,70.0,63.1,29.81,South,188,3.0,9.0,79,0.00,,,0.00,531.0,meteohub,2013-07-22 13:41:00,
2013-07-22 09:47:00,70.3,63.5,29.81,SSW,212,1.0,9.0,79,0.00,,,0.00,545.0,meteohub,2013-07-22 13:47:00,
2013-07-22 09:52:00,71.8,64.2,29.81,South,182,4.0,9.0,77,0.00,,,0.00,561.0,meteohub,2013-07-22 13:52:00,
2013-07-22 09:57:00,72.0,64.4,29.81,South,190,4.0,8.0,77,0.00,,,0.00,575.0,meteohub,2013-07-22 13:57:00,
2013-07-22 10:02:00,71.4,64.2,29.81,SSE,167,5.0,8.0,78,0.00,,,0.00,591.0,meteohub,2013-07-22 14:02:00,
2013-07-22 10:07:00,71.2,63.7,29.81,SW,232,7.0,7.0,77,0.00,,,0.00,605.0,meteohub,2013-07-22 14:07:00,
2013-07-22 10:12:00,71.4,64.2,29.80,South,183,3.0,8.0,78,0.00,,,0.00,613.0,meteohub,2013-07-22 14:12:00,
2013-07-22 10:17:00,72.3,64.4,29.80,South,173,5.0,8.0,76,0.00,,,0.00,624.0,meteohub,2013-07-22 14:17:00,
2013-07-22 10:22:00,72.5,65.3,29.79,WSW,250,6.0,8.0,78,0.00,,,0.00,640.0,meteohub,2013-07-22 14:22:00,
2013-07-22 10:27:00,72.9,64.4,29.79,SW,235,4.0,10.0,75,0.00,,,0.00,650.0,meteohub,2013-07-22 14:27:00,
2013-07-22 10:32:00,72.9,65.3,29.79,SW,232,3.0,10.0,77,0.00,,,0.00,659.0,meteohub,2013-07-22 14:32:00,
2013-07-22 10:37:00,73.6,65.5,29.79,WSW,238,2.0,10.0,76,0.00,,,0.00,663.0,meteohub,2013-07-22 14:37:00,
2013-07-22 10:42:00,74.1,65.3,29.79,WNW,298,4.0,8.0,74,0.00,,,0.00,666.0,meteohub,2013-07-22 14:42:00,
2013-07-22 10:47:00,74.5,64.9,29.79,SW,222,6.0,7.0,72,0.00,,,0.00,700.0,meteohub,2013-07-22 14:47:00,
2013-07-22 10:52:00,73.9,64.8,29.78,WSW,254,4.0,7.0,73,0.00,,,0.00,708.0,meteohub,2013-07-22 14:52:00,
2013-07-22 10:57:00,73.6,65.1,29.78,SW,225,2.0,8.0,75,0.00,,,0.00,719.0,meteohub,2013-07-22 14:57:00,
2013-07-22 11:02:00,75.4,65.3,29.78,South,175,1.0,8.0,71,0.00,,,0.00,729.0,meteohub,2013-07-22 15:02:00,
2013-07-22 11:07:00,75.2,64.8,29.78,SW,219,4.0,8.0,70,0.00,,,0.00,742.0,meteohub,2013-07-22 15:07:00,
2013-07-22 11:12:00,75.9,66.2,29.79,WNW,292,1.0,7.0,72,0.00,,,0.00,754.0,meteohub,2013-07-22 15:12:00,
2013-07-22 11:17:00,75.9,65.8,29.79,SW,232,2.0,7.0,71,0.00,,,0.00,766.0,meteohub,2013-07-22 15:17:00,
2013-07-22 11:22:00,76.6,66.6,29.78,SW,215,2.0,7.0,71,0.00,,,0.00,780.0,meteohub,2013-07-22 15:22:00,
2013-07-22 11:27:00,77.0,66.0,29.78,SW,223,3.0,7.0,69,0.00,,,0.00,793.0,meteohub,2013-07-22 15:27:00,
2013-07-22 11:32:00,77.2,66.2,29.78,SW,215,3.0,7.0,69,0.00,,,0.00,793.0,meteohub,2013-07-22 15:32:00,
2013-07-22 11:38:00,77.9,66.6,29.78,SW,218,7.0,7.0,68,0.00,,,0.00,800.0,meteohub,2013-07-22 15:38:00,
2013-07-22 11:43:00,76.8,65.5,29.78,SSW,198,2.0,7.0,68,0.00,,,0.00,814.0,meteohub,2013-07-22 15:43:00,
2013-07-22 11:48:00,78.1,65.8,29.78,SSW,207,2.0,7.0,66,0.00,,,0.00,360.0,meteohub,2013-07-22 15:48:00,
2013-07-22 11:53:00,77.2,64.9,29.78,SSW,203,2.0,7.0,66,0.00,,,0.00,856.0,meteohub,2013-07-22 15:53:00,
2013-07-22 11:58:00,77.5,65.3,29.78,SSE,159,3.0,6.0,66,0.00,,,0.00,838.0,meteohub,2013-07-22 15:58:00,
2013-07-22 12:03:00,78.3,66.7,29.77,South,176,2.0,8.0,68,0.00,,,0.00,846.0,meteohub,2013-07-22 16:03:00,
2013-07-22 12:08:00,78.3,65.5,29.77,West,261,2.0,8.0,65,0.00,,,0.00,846.0,meteohub,2013-07-22 16:08:00,
2013-07-22 12:13:00,77.5,65.3,29.76,WSW,239,2.0,8.0,66,0.00,,,0.00,849.0,meteohub,2013-07-22 16:13:00,
2013-07-22 12:18:00,78.1,65.8,29.76,SSW,204,4.0,8.0,66,0.00,,,0.00,856.0,meteohub,2013-07-22 16:18:00,
2013-07-22 12:23:00,79.5,65.3,29.76,SW,224,3.0,8.0,62,0.00,,,0.00,870.0,meteohub,2013-07-22 16:23:00,
2013-07-22 12:28:00,78.8,64.8,29.76,South,191,1.0,8.0,62,0.00,,,0.00,865.0,meteohub,2013-07-22 16:28:00,
2013-07-22 12:33:00,79.7,65.5,29.76,SW,219,5.0,6.0,62,0.00,,,0.00,877.0,meteohub,2013-07-22 16:33:00,
2013-07-22 12:38:00,80.1,66.4,29.76,WNW,286,0.0,7.0,63,0.00,,,0.00,882.0,meteohub,2013-07-22 16:38:00,
2013-07-22 12:43:00,80.4,66.7,29.75,SW,225,2.0,7.0,63,0.00,,,0.00,896.0,meteohub,2013-07-22 16:43:00,
2013-07-22 12:48:00,81.0,66.2,29.75,North,5,2.0,7.0,61,0.00,,,0.00,905.0,meteohub,2013-07-22 16:48:00,
2013-07-22 12:53:00,80.6,64.4,29.75,SW,222,6.0,6.0,58,0.00,,,0.00,918.0,meteohub,2013-07-22 16:53:00,
2013-07-22 12:58:00,79.5,65.8,29.75,SW,228,2.0,9.0,63,0.00,,,0.00,912.0,meteohub,2013-07-22 16:58:00,
2013-07-22 13:03:00,81.1,66.0,29.75,WSW,252,2.0,9.0,60,0.00,,,0.00,921.0,meteohub,2013-07-22 17:03:00,
2013-07-22 13:08:00,81.3,65.1,29.75,SW,230,2.0,9.0,58,0.00,,,0.00,921.0,meteohub,2013-07-22 17:08:00,
2013-07-22 13:13:00,81.9,66.6,29.75,WNW,290,2.0,4.0,60,0.00,,,0.00,919.0,meteohub,2013-07-22 17:13:00,
2013-07-22 13:18:00,82.2,66.4,29.75,SW,223,3.0,5.0,59,0.00,,,0.00,928.0,meteohub,2013-07-22 17:18:00,
2013-07-22 13:23:00,81.0,64.8,29.74,SSW,211,3.0,6.0,58,0.00,,,0.00,933.0,meteohub,2013-07-22 17:23:00,
2013-07-22 13:28:00,81.3,66.6,29.74,SSW,207,3.0,6.0,61,0.00,,,0.00,1025.0,meteohub,2013-07-22 17:28:00,
2013-07-22 13:33:00,80.2,65.1,29.74,SSW,211,3.0,5.0,60,0.00,,,0.00,995.0,meteohub,2013-07-22 17:33:00,
2013-07-22 13:38:00,81.0,65.3,29.74,SW,223,4.0,7.0,59,0.00,,,0.00,951.0,meteohub,2013-07-22 17:38:00,
2013-07-22 13:43:00,81.7,66.9,29.74,SW,215,4.0,7.0,61,0.00,,,0.00,253.0,meteohub,2013-07-22 17:43:00,
2013-07-22 13:48:00,79.7,64.6,29.73,SSW,213,1.0,7.0,60,0.00,,,0.00,439.0,meteohub,2013-07-22 17:48:00,
2013-07-22 13:53:00,80.2,65.1,29.73,SSW,192,2.0,7.0,60,0.00,,,0.00,272.0,meteohub,2013-07-22 17:53:00,
2013-07-22 13:59:00,80.4,66.7,29.73,SSW,209,4.0,7.0,63,0.00,,,0.00,1016.0,meteohub,2013-07-22 17:59:00,
2013-07-22 14:05:00,81.7,67.5,29.73,SW,216,3.0,7.0,62,0.00,,,0.00,1137.0,meteohub,2013-07-22 18:05:00,
2013-07-22 14:09:00,80.2,65.1,29.73,SW,225,1.0,8.0,60,0.00,,,0.00,1071.0,meteohub,2013-07-22 18:09:00,
2013-07-22 14:12:00,80.8,66.0,29.73,SSW,213,3.0,8.0,61,0.00,,,0.00,1020.0,meteohub,2013-07-22 18:12:00,
2013-07-22 14:17:00,82.9,66.6,29.72,West,281,1.0,8.0,58,0.00,,,0.00,418.0,meteohub,2013-07-22 18:17:00,
2013-07-22 14:24:00,82.6,65.8,29.72,South,185,1.0,7.0,57,0.00,,,0.00,946.0,meteohub,2013-07-22 18:24:00,
2013-07-22 14:29:00,82.8,66.9,29.72,SSW,192,4.0,7.0,59,0.00,,,0.00,944.0,meteohub,2013-07-22 18:29:00,
2013-07-22 14:37:00,82.4,67.1,29.71,SW,218,4.0,7.0,60,0.00,,,0.00,976.0,meteohub,2013-07-22 18:37:00,
2013-07-22 14:42:00,82.8,67.5,29.71,SSW,202,1.0,7.0,60,0.00,,,0.00,923.0,meteohub,2013-07-22 18:42:00,
2013-07-22 14:44:00,82.8,67.5,29.71,SSW,202,1.0,7.0,60,0.00,,,0.00,923.0,meteohub,2013-07-22 18:44:00,
2013-07-22 14:52:00,83.3,65.5,29.71,SW,214,4.0,7.0,55,0.00,,,0.00,944.0,meteohub,2013-07-22 18:52:00,
2013-07-22 14:57:00,82.9,65.7,29.70,SW,224,4.0,9.0,56,0.00,,,0.00,951.0,meteohub,2013-07-22 18:57:00,
2013-07-22 15:02:00,83.5,65.7,29.70,WSW,237,5.0,9.0,55,0.00,,,0.00,914.0,meteohub,2013-07-22 19:02:00,
2013-07-22 15:07:00,84.0,66.2,29.70,West,273,1.0,10.0,55,0.00,,,0.00,974.0,meteohub,2013-07-22 19:07:00,
2013-07-22 15:17:00,83.5,65.7,29.69,WSW,242,3.0,10.0,55,0.00,,,0.00,965.0,meteohub,2013-07-22 19:17:00,
2013-07-22 15:22:00,83.7,66.7,29.69,SSW,200,5.0,8.0,57,0.00,,,0.00,986.0,meteohub,2013-07-22 19:22:00,
2013-07-22 15:29:00,83.8,67.5,29.69,SW,229,1.0,7.0,58,0.00,,,0.00,879.0,meteohub,2013-07-22 19:29:00,
2013-07-22 15:35:00,83.1,68.4,29.68,SSW,193,3.0,10.0,61,0.00,,,0.00,851.0,meteohub,2013-07-22 19:35:00,
2013-07-22 15:42:00,84.0,67.1,29.68,SW,229,5.0,10.0,57,0.00,,,0.00,856.0,meteohub,2013-07-22 19:42:00,
2013-07-22 15:47:00,83.8,66.4,29.68,SW,231,1.0,8.0,56,0.00,,,0.00,831.0,meteohub,2013-07-22 19:47:00,
2013-07-22 15:52:00,83.8,66.4,29.68,SW,231,2.0,8.0,56,0.00,,,0.00,835.0,meteohub,2013-07-22 19:52:00,
2013-07-22 16:00:00,84.0,66.6,29.68,SSW,211,1.0,10.0,56,0.00,,,0.00,802.0,meteohub,2013-07-22 20:00:00,
2013-07-22 16:05:00,84.7,66.7,29.68,West,261,2.0,10.0,55,0.00,,,0.00,802.0,meteohub,2013-07-22 20:05:00,
2013-07-22 16:10:00,84.7,67.3,29.67,NW,312,3.0,9.0,56,0.00,,,0.00,791.0,meteohub,2013-07-22 20:10:00,
2013-07-22 16:17:00,84.2,65.3,29.67,WSW,242,3.0,9.0,53,0.00,,,0.00,759.0,meteohub,2013-07-22 20:17:00,
2013-07-22 16:18:00,84.0,65.7,29.67,WSW,239,2.0,9.0,54,0.00,,,0.00,754.0,meteohub,2013-07-22 20:18:00,
2013-07-22 16:23:00,84.6,67.1,29.67,SSW,211,1.0,9.0,56,0.00,,,0.00,742.0,meteohub,2013-07-22 20:23:00,
2013-07-22 16:28:00,84.7,67.3,29.66,SW,221,2.0,9.0,56,0.00,,,0.00,744.0,meteohub,2013-07-22 20:28:00,
2013-07-22 16:33:00,84.6,66.0,29.66,WSW,254,1.0,9.0,54,0.00,,,0.00,722.0,meteohub,2013-07-22 20:33:00,
2013-07-22 16:38:00,84.0,66.2,29.66,SW,228,2.0,8.0,55,0.00,,,0.00,703.0,meteohub,2013-07-22 20:38:00,
2013-07-22 16:43:00,84.6,66.0,29.66,WSW,238,4.0,11.0,54,0.00,,,0.00,694.0,meteohub,2013-07-22 20:43:00,
2013-07-22 16:48:00,84.4,66.4,29.66,SSW,202,1.0,11.0,55,0.00,,,0.00,680.0,meteohub,2013-07-22 20:48:00,
2013-07-22 16:53:00,84.6,67.1,29.66,SSW,202,5.0,9.0,56,0.00,,,0.00,668.0,meteohub,2013-07-22 20:53:00,
2013-07-22 16:58:00,84.6,66.6,29.66,West,267,2.0,9.0,55,0.00,,,0.00,647.0,meteohub,2013-07-22 20:58:00,
2013-07-22 17:03:00,84.7,67.3,29.65,South,184,1.0,8.0,56,0.00,,,0.00,638.0,meteohub,2013-07-22 21:03:00,
2013-07-22 17:08:00,84.6,66.0,29.65,SSW,205,5.0,7.0,54,0.00,,,0.00,577.0,meteohub,2013-07-22 21:08:00,
2013-07-22 17:13:00,84.4,67.5,29.65,WSW,240,5.0,7.0,57,0.00,,,0.00,251.0,meteohub,2013-07-22 21:13:00,
2013-07-22 17:18:00,84.0,66.2,29.65,SW,217,4.0,9.0,55,0.00,,,0.00,162.0,meteohub,2013-07-22 21:18:00,
2013-07-22 17:23:00,83.8,66.9,29.65,West,274,1.0,9.0,57,0.00,,,0.00,83.0,meteohub,2013-07-22 21:23:00,
2013-07-22 17:28:00,83.7,68.7,29.65,NE,36,0.0,9.0,61,0.00,,,0.00,90.0,meteohub,2013-07-22 21:28:00,
2013-07-22 17:33:00,83.3,66.9,29.65,East,88,2.0,7.0,58,0.00,,,0.00,86.0,meteohub,2013-07-22 21:33:00,
2013-07-22 17:38:00,83.1,67.8,29.65,NNE,16,1.0,6.0,60,0.00,,,0.00,144.0,meteohub,2013-07-22 21:38:00,
2013-07-22 17:43:00,82.8,67.5,29.64,North,5,1.0,4.0,60,0.00,,,0.00,178.0,meteohub,2013-07-22 21:43:00,
2013-07-22 17:48:00,82.2,67.5,29.64,South,178,2.0,4.0,61,0.00,,,0.00,188.0,meteohub,2013-07-22 21:48:00,
2013-07-22 17:53:00,81.7,68.4,29.64,East,90,1.0,4.0,64,0.00,,,0.00,98.0,meteohub,2013-07-22 21:53:00,
2013-07-22 17:58:00,81.1,68.2,29.64,ESE,117,1.0,5.0,65,0.00,,,0.00,93.0,meteohub,2013-07-22 21:58:00,
2013-07-22 18:03:00,80.8,69.3,29.64,East,86,5.0,6.0,68,0.00,,,0.00,91.0,meteohub,2013-07-22 22:03:00,
2013-07-22 18:08:00,80.2,67.8,29.64,NNE,16,2.0,6.0,66,0.00,,,0.00,90.0,meteohub,2013-07-22 22:08:00,
2013-07-22 18:13:00,79.5,67.1,29.64,ENE,60,2.0,6.0,66,0.00,,,0.00,98.0,meteohub,2013-07-22 22:13:00,
2013-07-22 18:18:00,79.2,67.6,29.64,NNW,343,2.0,5.0,68,0.00,,,0.00,63.0,meteohub,2013-07-22 22:18:00,
2013-07-22 18:23:00,78.6,67.1,29.64,NNE,33,1.0,5.0,68,0.00,,,0.00,67.0,meteohub,2013-07-22 22:23:00,
2013-07-22 18:28:00,78.1,67.5,29.64,North,5,2.0,5.0,70,0.00,,,0.00,67.0,meteohub,2013-07-22 22:28:00,
2013-07-22 18:33:00,77.5,66.9,29.63,NNE,18,0.0,5.0,70,0.00,,,0.00,60.0,meteohub,2013-07-22 22:33:00,
2013-07-22 18:38:00,77.4,66.7,29.63,NE,43,3.0,5.0,70,0.00,,,0.00,58.0,meteohub,2013-07-22 22:38:00,
2013-07-22 18:43:00,77.2,67.5,29.63,NNW,343,0.0,3.0,72,0.00,,,0.00,70.0,meteohub,2013-07-22 22:43:00,
2013-07-22 18:48:00,77.2,67.8,29.63,NE,51,0.0,3.0,73,0.00,,,0.00,113.0,meteohub,2013-07-22 22:48:00,
2013-07-22 18:54:00,77.2,67.8,29.62,East,81,1.0,3.0,73,0.00,,,0.00,107.0,meteohub,2013-07-22 22:54:00,
2013-07-22 18:59:00,77.2,67.8,29.62,ESE,115,1.0,3.0,73,0.00,,,0.00,81.0,meteohub,2013-07-22 22:59:00,
2013-07-22 19:04:00,77.0,68.0,29.62,ESE,115,1.0,3.0,74,0.00,,,0.00,67.0,meteohub,2013-07-22 23:04:00,
2013-07-22 19:09:00,76.6,67.3,29.62,NE,51,2.0,3.0,73,0.00,,,0.00,63.0,meteohub,2013-07-22 23:09:00,
2013-07-22 19:14:00,76.5,68.0,29.62,NE,51,1.0,3.0,75,0.00,,,0.00,72.0,meteohub,2013-07-22 23:14:00,
2013-07-22 19:19:00,76.3,67.8,29.62,NE,51,0.0,3.0,75,0.00,,,0.00,98.0,meteohub,2013-07-22 23:19:00,
2013-07-22 19:24:00,76.3,68.2,29.62,NE,51,0.0,3.0,76,0.00,,,0.00,116.0,meteohub,2013-07-22 23:24:00,
2013-07-22 19:29:00,76.3,68.2,29.62,NE,51,1.0,2.0,76,0.00,,,0.00,91.0,meteohub,2013-07-22 23:29:00,
2013-07-22 19:34:00,76.3,68.2,29.62,East,80,1.0,2.0,76,0.00,,,0.00,83.0,meteohub,2013-07-22 23:34:00,
2013-07-22 19:39:00,76.1,68.0,29.62,ENE,76,1.0,3.0,76,0.00,,,0.00,65.0,meteohub,2013-07-22 23:39:00,
2013-07-22 19:44:00,75.9,67.8,29.62,ENE,76,0.0,3.0,76,0.00,,,0.00,49.0,meteohub,2013-07-22 23:44:00,
2013-07-22 19:49:00,75.7,68.0,29.62,ENE,76,0.0,3.0,77,0.00,,,0.00,54.0,meteohub,2013-07-22 23:49:00,
2013-07-22 19:54:00,75.7,68.4,29.62,ENE,76,0.0,3.0,78,0.00,,,0.00,47.0,meteohub,2013-07-22 23:54:00,
2013-07-22 19:59:00,75.6,68.5,29.62,ENE,76,0.0,2.0,79,0.00,,,0.00,33.0,meteohub,2013-07-22 23:59:00,
2013-07-22 20:04:00,75.4,68.4,29.62,ENE,76,0.0,1.0,79,0.00,,,0.00,19.0,meteohub,2013-07-23 00:04:00,
2013-07-22 20:09:00,75.2,68.2,29.62,ENE,76,0.0,1.0,79,0.00,,,0.00,16.0,meteohub,2013-07-23 00:09:00,
2013-07-22 20:15:00,75.0,68.4,29.62,ENE,76,0.0,1.0,80,0.00,,,0.00,19.0,meteohub,2013-07-23 00:15:00,
2013-07-22 20:20:00,74.7,68.4,29.62,ENE,76,0.0,0.0,81,0.00,,,0.00,44.0,meteohub,2013-07-23 00:20:00,
2013-07-22 20:25:00,74.7,68.7,29.61,ENE,76,0.0,0.0,82,0.00,,,0.00,25.0,meteohub,2013-07-23 00:25:00,
2013-07-22 20:30:00,74.5,68.5,29.61,ENE,76,0.0,1.0,82,0.00,,,0.00,21.0,meteohub,2013-07-23 00:30:00,
2013-07-22 20:35:00,74.5,68.5,29.61,ESE,113,0.0,1.0,82,0.00,,,0.00,23.0,meteohub,2013-07-23 00:35:00,
2013-07-22 20:40:00,74.5,68.5,29.61,ESE,113,0.0,2.0,82,0.00,,,0.00,21.0,meteohub,2013-07-23 00:40:00,
2013-07-22 20:45:00,74.5,68.5,29.61,ESE,113,0.0,2.0,82,0.00,,,0.00,14.0,meteohub,2013-07-23 00:45:00,
2013-07-22 20:50:00,74.3,68.7,29.60,ESE,113,1.0,2.0,83,0.00,,,0.00,11.0,meteohub,2013-07-23 00:50:00,
2013-07-22 20:55:00,74.1,68.2,29.60,ESE,113,1.0,1.0,82,0.00,,,0.00,7.0,meteohub,2013-07-23 00:55:00,
2013-07-22 21:00:00,73.9,68.4,29.60,ESE,113,0.0,1.0,83,0.00,,,0.00,0.0,meteohub,2013-07-23 01:00:00,
2013-07-22 21:05:00,73.8,68.4,29.60,SSE,149,1.0,2.0,83,0.00,,,0.00,0.0,meteohub,2013-07-23 01:05:00,
2013-07-22 21:10:00,73.6,68.2,29.60,SW,217,0.0,2.0,83,0.00,,,0.00,0.0,meteohub,2013-07-23 01:10:00,
2013-07-22 21:15:00,73.6,68.2,29.60,SW,220,1.0,2.0,83,0.00,,,0.00,0.0,meteohub,2013-07-23 01:15:00,
2013-07-22 21:20:00,73.4,68.0,29.60,SSW,212,1.0,2.0,83,0.00,,,0.00,0.0,meteohub,2013-07-23 01:20:00,
2013-07-22 21:25:00,73.2,67.5,29.60,SSW,212,1.0,2.0,82,0.00,,,0.00,0.0,meteohub,2013-07-23 01:25:00,
2013-07-22 21:30:00,73.0,67.6,29.60,SW,221,2.0,2.0,83,0.00,,,0.00,0.0,meteohub,2013-07-23 01:30:00,
2013-07-22 21:35:00,73.0,68.0,29.60,SSE,167,0.0,2.0,84,0.00,,,0.00,0.0,meteohub,2013-07-23 01:35:00,
2013-07-22 21:40:00,73.0,68.0,29.60,South,182,2.0,2.0,84,0.00,,,0.00,0.0,meteohub,2013-07-23 01:40:00,
2013-07-22 21:45:00,73.0,68.0,29.61,SSW,205,1.0,2.0,84,0.00,,,0.00,0.0,meteohub,2013-07-23 01:45:00,
2013-07-22 21:50:00,73.0,68.0,29.60,SSW,205,0.0,2.0,84,0.00,,,0.00,0.0,meteohub,2013-07-23 01:50:00,
2013-07-22 21:55:00,72.9,68.0,29.61,SSW,205,0.0,2.0,85,0.00,,,0.00,0.0,meteohub,2013-07-23 01:55:00,
2013-07-22 22:01:00,72.7,67.8,29.61,SSW,205,0.0,1.0,85,0.00,,,0.00,0.0,meteohub,2013-07-23 02:01:00,
2013-07-22 22:06:00,72.3,67.8,29.60,SSW,205,0.0,1.0,86,0.00,,,0.00,0.0,meteohub,2013-07-23 02:06:00,
2013-07-22 22:11:00,72.1,67.6,29.60,SSW,205,0.0,1.0,86,0.00,,,0.00,0.0,meteohub,2013-07-23 02:11:00,
2013-07-22 22:16:00,72.1,67.6,29.61,SSW,205,0.0,1.0,86,0.00,,,0.00,0.0,meteohub,2013-07-23 02:16:00,
2013-07-22 22:21:00,72.0,67.5,29.60,SSW,205,1.0,1.0,86,0.00,,,0.00,0.0,meteohub,2013-07-23 02:21:00,
2013-07-22 22:26:00,72.0,67.5,29.60,SSW,205,0.0,1.0,86,0.00,,,0.00,0.0,meteohub,2013-07-23 02:26:00,
2013-07-22 22:31:00,71.8,67.6,29.61,SSW,205,0.0,1.0,87,0.00,,,0.00,0.0,meteohub,2013-07-23 02:31:00,
2013-07-22 22:36:00,71.4,67.6,29.60,SSW,205,0.0,1.0,88,0.00,,,0.00,0.0,meteohub,2013-07-23 02:36:00,
2013-07-22 22:41:00,71.2,67.5,29.61,SSW,205,1.0,2.0,88,0.00,,,0.00,0.0,meteohub,2013-07-23 02:41:00,
2013-07-22 22:46:00,71.1,67.6,29.61,SSW,205,0.0,2.0,89,0.00,,,0.00,0.0,meteohub,2013-07-23 02:46:00,
2013-07-22 22:51:00,71.1,67.6,29.60,SSW,205,0.0,2.0,89,0.00,,,0.00,0.0,meteohub,2013-07-23 02:51:00,
2013-07-22 22:56:00,70.9,67.5,29.60,SSW,205,0.0,2.0,89,0.00,,,0.00,0.0,meteohub,2013-07-23 02:56:00,
2013-07-22 23:01:00,70.9,67.5,29.60,South,179,1.0,1.0,89,0.00,,,0.00,0.0,meteohub,2013-07-23 03:01:00,
2013-07-22 23:06:00,70.9,67.5,29.60,South,179,0.0,2.0,89,0.00,,,0.00,0.0,meteohub,2013-07-23 03:06:00,
2013-07-22 23:11:00,70.9,67.5,29.60,South,179,0.0,2.0,89,0.00,,,0.00,0.0,meteohub,2013-07-23 03:11:00,
2013-07-22 23:16:00,71.1,68.0,29.60,South,181,3.0,3.0,90,0.00,,,0.00,0.0,meteohub,2013-07-23 03:16:00,
2013-07-22 23:21:00,70.9,67.5,29.59,South,177,1.0,3.0,89,0.00,,,0.00,0.0,meteohub,2013-07-23 03:21:00,
2013-07-22 23:26:00,71.1,68.0,29.59,SSW,192,0.0,3.0,90,0.00,,,0.00,0.0,meteohub,2013-07-23 03:26:00,
2013-07-22 23:31:00,71.2,67.8,29.60,SSW,212,1.0,3.0,89,0.00,,,0.00,0.0,meteohub,2013-07-23 03:31:00,
2013-07-22 23:37:00,71.6,67.5,29.60,SW,234,2.0,3.0,87,0.00,,,0.00,0.0,meteohub,2013-07-23 03:37:00,
2013-07-22 23:42:00,71.8,67.3,29.60,WSW,248,2.0,3.0,86,0.00,,,0.00,0.0,meteohub,2013-07-23 03:42:00,
2013-07-22 23:47:00,72.1,67.1,29.59,South,190,3.0,5.0,84,0.00,,,0.00,0.0,meteohub,2013-07-23 03:47:00,
2013-07-22 23:52:00,72.3,66.9,29.59,SSW,200,3.0,6.0,83,0.00,,,0.00,0.0,meteohub,2013-07-23 03:52:00,
2013-07-22 23:57:00,72.9,67.1,29.59,SSW,197,2.0,6.0,82,0.00,,,0.00,0.0,meteohub,2013-07-23 03:57:00,